Tracking 29892 objects as of 21-Nov-2024
HD Live streaming from Space Station
objects crossing your sky now

STARLINK-3149

Track STARLINK-3149 now!
10-day predictions
STARLINK-3149 is classified as:


NORAD ID: 49423
Int'l Code: 2021-104R
Perigee: 545.8 km
Apogee: 547.8 km
Inclination: 53.2 °
Period: 95.4 minutes
Semi major axis: 6917 km
RCS: Unknown
Launch date: November 13, 2021
Source: United States (US)
Launch site: AIR FORCE EASTERN TEST RANGE (AFETR)
Your satellite tracking list
Your tracking list is empty




NASA's NSSDC Master Catalog

Two Line Element Set (TLE):
1 49423U 21104R   24324.95463966  .00006133  00000-0  40294-3 0  9998
2 49423  53.2151 200.4795 0001423  88.1888 271.9267 15.08856454166956
Source of the keplerian elements: AFSPC